[[{"header":{"parameterUnit":"m.s-1","parameterCategory":1,"la1":30.2992,"la2":30.254,"lo1":-89.0895,"lo2":-89.0443,"dy":0.0025,"dx":0.0025,"nx":19,"ny":19,"refTime":"2026-03-10T03:00:00:Z","depth":0,"parameterNumber":2,"parameterNumberName":"U-component_of_WINDS"},"data":[0,0,0,-1.8761,-1.8762,-1.8799,-1.8799,-1.885,-1.885,0,0,0,0,0,0,0,0,0,0,0,-1.8752,-1.8752,-1.8761,-1.8762,-1.8799,-1.8799,-1.885,-1.885,0,0,0,0,0,0,0,0,0,0,0,-1.8752,-1.8752,-1.8753,-1.8762,-1.8799,-1.8799,-1.8849,-1.8821,0,0,0,0,0,0,0,0,0,0,-1.8784,-1.8777,-1.8752,-1.8753,-1.8763,-1.8799,-1.8799,-1.8819,-1.8822,-1.8834,0,-1.8845,0,-1.8848,-1.8854,-1.8854,0,0,0,-1.8761,-1.8774,-1.8783,-1.8753,-1.8763,-1.8799,-1.8782,-1.8821,-1.8825,-1.8839,-1.8846,-1.8847,-1.8849,-1.8854,-1.8854,-1.8925,-1.8926,0,0,-1.8759,-1.876,-1.878,-1.8785,-1.8779,-1.8781,-1.8783,-1.8823,-1.8831,-1.8846,-1.8848,-1.885,-1.8854,-1.8855,-1.8925,-1.8925,0,0,0,-1.8754,-1.8758,-1.8766,-1.8783,-1.879,-1.8782,-1.8785,-1.8829,-1.8831,-1.8849,-1.8851,-1.8855,-1.8855,-1.8924,-1.8925,-1.8943,0,0,0,-1.8753,-1.8755,-1.8765,-1.8765,-1.8789,-1.881,-1.879,-1.8829,-1.8833,-1.885,-1.8855,-1.8856,-1.8924,-1.8925,-1.8941,-1.8951,0,0,0,-1.8749,-1.8755,-1.8761,-1.8765,-1.8781,-1.8809,-1.8814,-1.883,-1.8834,-1.8854,-1.8856,-1.8924,-1.8925,-1.894,-1.8949,-1.8969,0,0,0,-1.8745,-1.8777,-1.8761,-1.8796,-1.8781,-1.882,-1.8813,-1.8843,-1.8862,-1.8855,-1.8924,-1.8925,-1.894,-1.8948,-1.8967,-1.8984,-1.8992,0,0,-1.8785,-1.8781,-1.8802,-1.8789,-1.8831,-1.8814,-1.8859,-1.8877,-1.8879,-1.891,-1.8912,-1.8942,-1.8949,-1.8968,-1.9036,-1.9042,0,0,0,-1.8815,-1.883,-1.8841,-1.8859,-1.8873,-1.8886,-1.8896,-1.8903,-1.8929,-1.8895,-1.8955,-1.8959,-1.8971,-1.8979,-1.8984,-1.8993,-1.8929,-1.8929,-1.8929,-1.887,-1.8871,-1.8905,-1.8911,-1.8928,-1.8939,-1.8954,-1.8965,-1.8961,-1.8975,-1.8984,-1.9025,-1.9034,-1.9038,-1.9048,-1.8994,-1.8994,-1.8994,-1.8994,-1.8927,-1.8947,-1.8942,-1.8973,-1.8974,-1.9,-1.9013,-1.9009,-1.9034,-1.9018,-1.9029,-1.901,-1.9044,-1.9053,-1.8996,-1.8995,-1.8995,-1.8995,-1.8995,-1.8962,-1.8972,-1.8979,-1.9005,-1.9026,-1.9031,-1.9055,-1.9056,-1.9056,-1.9067,-1.9075,-1.9075,-1.9073,-1.9071,-1.9071,-1.9071,-1.9071,-1.9072,-1.9072,-1.8994,-1.9002,-1.9022,-1.904,-1.9052,-1.9067,-1.9079,-1.9091,-1.9104,-1.9103,-1.9103,-1.9097,-1.9048,-1.9035,-1.9074,-1.9073,-1.9073,-1.9073,-1.9073,-1.9049,-1.9037,-1.9067,-1.9079,-1.91,-1.912,-1.9121,-1.9145,-1.9155,-1.9167,-1.9159,-1.9124,-1.912,-1.9116,-1.9105,-1.916,-1.916,-1.916,-1.916,-1.9077,-1.9076,-1.9107,-1.9125,-1.9144,-1.9148,-1.9182,-1.9193,-1.9202,-1.9208,-1.9201,-1.9187,-1.9183,-1.9181,-1.9176,-1.9165,-1.9235,-1.9235,-1.9235,-1.911,-1.9111,-1.9139,-1.9147,-1.9164,-1.9179,-1.9211,-1.9233,-1.9241,-1.9238,-1.9213,-1.9209,-1.9187,-1.918,-1.9174,-1.9166,-1.9146,0,0]},{"header":{"parameterUnit":"m.s-1","parameterCategory":1,"la1":30.2992,"la2":30.254,"lo1":-89.0895,"lo2":-89.0443,"dy":0.0025,"dx":0.0025,"nx":19,"ny":19,"refTime":"2026-03-10T03:00:00:Z","depth":0,"parameterNumber":3,"parameterNumberName":"V-component_of_WINDS"},"data":[0,0,0,2.9275,2.9277,2.9393,2.9393,2.9535,2.9537,0,0,0,0,0,0,0,0,0,0,0,2.9233,2.9233,2.9275,2.9278,2.9393,2.9393,2.9535,2.9537,0,0,0,0,0,0,0,0,0,0,0,2.9232,2.9233,2.9234,2.9278,2.9393,2.9393,2.9535,2.9451,0,0,0,0,0,0,0,0,0,0,2.9341,2.9292,2.9233,2.9234,2.9279,2.9393,2.9394,2.9447,2.9456,2.9479,0,2.9493,0,2.9517,2.9545,2.9546,0,0,0,2.9285,2.9284,2.9322,2.9234,2.928,2.9392,2.9343,2.9452,2.9463,2.9491,2.9495,2.9501,2.9519,2.9546,2.9547,2.9646,2.9646,0,0,2.9279,2.925,2.9315,2.9328,2.9305,2.9339,2.9346,2.9459,2.9463,2.9496,2.9504,2.9521,2.9547,2.9548,2.9646,2.9646,0,0,0,2.9256,2.9245,2.9281,2.9322,2.9343,2.9342,2.9351,2.9458,2.9472,2.9506,2.9523,2.9548,2.9549,2.9645,2.9646,2.9622,0,0,0,2.9252,2.9231,2.9278,2.9261,2.9341,2.9401,2.9347,2.9464,2.9478,2.9522,2.9548,2.9551,2.9645,2.9646,2.9623,2.9616,0,0,0,2.9228,2.9229,2.9242,2.9259,2.9307,2.94,2.942,2.9468,2.9488,2.9546,2.9551,2.9645,2.9646,2.9623,2.9617,2.9635,0,0,0,2.9195,2.922,2.9241,2.9276,2.9306,2.9383,2.942,2.9479,2.9526,2.9548,2.9645,2.9646,2.9623,2.9617,2.9635,2.9645,2.9646,0,0,2.9211,2.9221,2.9244,2.9266,2.9331,2.9368,2.9432,2.9504,2.9538,2.9609,2.9612,2.9622,2.9617,2.9635,2.966,2.966,0,0,0,2.9239,2.9256,2.9279,2.9321,2.9375,2.9423,2.9487,2.9515,2.9577,2.9567,2.9634,2.9632,2.9644,2.965,2.9651,2.9664,2.9647,2.9647,2.9647,2.9219,2.926,2.9302,2.9357,2.9398,2.9466,2.9505,2.9555,2.9584,2.96,2.9622,2.9631,2.9637,2.9638,2.9651,2.963,2.963,2.963,2.963,2.9246,2.9277,2.9317,2.9371,2.9417,2.9466,2.9535,2.9555,2.961,2.9618,2.9631,2.9636,2.9637,2.9651,2.9628,2.9629,2.9629,2.9629,2.9629,2.9238,2.926,2.9291,2.9358,2.9407,2.9464,2.9515,2.9555,2.9594,2.9606,2.9635,2.9636,2.9643,2.9617,2.9617,2.9617,2.9617,2.9617,2.9617,2.9216,2.9253,2.9289,2.935,2.9384,2.9435,2.9506,2.9543,2.9594,2.962,2.962,2.9651,2.9628,2.9622,2.9618,2.9618,2.9618,2.9618,2.9618,2.9229,2.9233,2.9288,2.9322,2.94,2.9448,2.9499,2.957,2.9607,2.9632,2.9661,2.9637,2.9651,2.9652,2.9647,2.965,2.965,2.965,2.965,2.9222,2.9233,2.93,2.9353,2.9409,2.9461,2.9529,2.9587,2.9649,2.9676,2.9682,2.9679,2.9677,2.9693,2.9692,2.9689,2.9702,2.9702,2.9702,2.9234,2.9253,2.9298,2.9355,2.9421,2.9478,2.9543,2.9607,2.9678,2.9705,2.9698,2.9696,2.9692,2.9688,2.9713,2.9711,2.9706,0,0]}]]